| time (UTC) | temp F | wind direction | speed knots | gust knots | rain 1hr in | rain 24hr in | rain mn in | humidity % | barometer mb |
| 20260504003104 | 54 | 184 | 0.0 | 0.0 | 0.00 | 0.00 | 0.00 | 82 | 1018.9 |
| 20260504002603 | 54 | 184 | 0.0 | 0.0 | 0.00 | 0.00 | 0.00 | 82 | 1018.9 |
| 20260504002102 | 54 | 184 | 0.0 | 0.0 | 0.00 | 0.00 | 0.00 | 82 | 1019.0 |
| 20260504001601 | 54 | 184 | 0.0 | 0.0 | 0.00 | 0.00 | 0.00 | 82 | 1019.0 |
| 20260504001051 | 55 | 184 | 0.0 | 1.7 | 0.00 | 0.00 | 0.00 | 82 | 1019.0 |
| 20260504000547 | 55 | 184 | 0.0 | 1.7 | 0.00 | 0.00 | 0.00 | 82 | 1019.0 |
| 20260504000042 | 55 | 184 | 0.9 | 1.7 | 0.00 | 0.00 | 0.00 | 81 | 1018.9 |
| 20260503235543 | 55 | 184 | 0.0 | 1.7 | 0.00 | 0.00 | 0.00 | 82 | 1019.0 |
| 20260503235041 | 55 | 184 | 0.0 | 0.9 | 0.00 | 0.00 | 0.00 | 82 | 1019.1 |
| 20260503234543 | 55 | 184 | 0.0 | 0.9 | 0.00 | 0.00 | 0.00 | 82 | 1019.2 |
| 20260503234038 | 55 | 184 | 0.9 | 1.7 | 0.00 | 0.00 | 0.00 | 82 | 1019.3 |
| 20260503233539 | 55 | 184 | 0.9 | 1.7 | 0.00 | 0.00 | 0.00 | 82 | 1019.3 |
| 20260503233029 | 55 | 184 | 0.9 | 1.7 | 0.00 | 0.00 | 0.00 | 82 | 1019.3 |
| 20260503232520 | 55 | 184 | 0.9 | 1.7 | 0.00 | 0.00 | 0.00 | 81 | 1019.4 |
| 20260503232019 | 55 | 184 | 0.0 | 1.7 | 0.00 | 0.00 | 0.00 | 81 | 1019.4 |
| 20260503231518 | 55 | 184 | 0.0 | 1.7 | 0.00 | 0.00 | 0.00 | 81 | 1019.4 |
| 20260503231018 | 55 | 184 | 0.9 | 1.7 | 0.00 | 0.00 | 0.00 | 80 | 1019.4 |
| 20260503230516 | 55 | 184 | 0.9 | 2.6 | 0.00 | 0.00 | 0.00 | 80 | 1019.5 |
| 20260503230017 | 55 | 184 | 0.9 | 2.6 | 0.00 | 0.00 | 0.00 | 80 | 1019.4 |
| 20260503225515 | 56 | 265 | 0.0 | 0.9 | 0.00 | 0.00 | 0.00 | 79 | 1019.5 |
| 20260503225005 | 56 | 265 | 0.0 | 0.9 | 0.00 | 0.00 | 0.00 | 79 | 1019.5 |
| 20260503224455 | 56 | 265 | 0.0 | 0.9 | 0.00 | 0.00 | 0.00 | 79 | 1019.5 |
| 20260503223952 | 56 | 265 | 0.0 | 0.9 | 0.00 | 0.00 | 0.00 | 78 | 1019.5 |
| 20260503223439 | 56 | 265 | 0.0 | 0.9 | 0.00 | 0.00 | 0.00 | 76 | 1019.5 |
| 20260503222934 | 56 | 265 | 0.0 | 0.0 | 0.00 | 0.00 | 0.00 | 75 | 1019.4 |
| 20260503222428 | 56 | 265 | 0.0 | 0.9 | 0.00 | 0.00 | 0.00 | 75 | 1019.4 |
| 20260503221925 | 56 | 265 | 0.9 | 1.7 | 0.00 | 0.00 | 0.00 | 75 | 1019.4 |
| 20260503221426 | 57 | 265 | 0.9 | 1.7 | 0.00 | 0.00 | 0.00 | 74 | 1019.4 |
| 20260503220921 | 57 | 265 | 0.9 | 1.7 | 0.00 | 0.00 | 0.00 | 74 | 1019.3 |
| 20260503220414 | 57 | 265 | 0.0 | 0.9 | 0.00 | 0.00 | 0.00 | 73 | 1019.4 |
| 20260503215912 | 57 | 265 | 0.9 | 1.7 | 0.00 | 0.00 | 0.00 | 72 | 1019.3 |
| 20260503215412 | 58 | 265 | 0.9 | 1.7 | 0.00 | 0.00 | 0.00 | 72 | 1019.3 |
| 20260503214911 | 58 | 257 | 0.9 | 1.7 | 0.00 | 0.00 | 0.00 | 71 | 1019.4 |
| 20260503214400 | 58 | 246 | 0.9 | 1.7 | 0.00 | 0.00 | 0.00 | 71 | 1019.3 |
| 20260503213902 | 58 | 240 | 0.9 | 1.7 | 0.00 | 0.00 | 0.00 | 71 | 1019.4 |
| 20260503213428 | 58 | 238 | 0.9 | 2.6 | 0.00 | 0.00 | 0.00 | 70 | 1019.4 |
| 20260503212351 | 59 | 236 | 0.9 | 4.3 | 0.00 | 0.00 | 0.00 | 70 | 1019.3 |
| 20260503211851 | 59 | 261 | 0.0 | 1.7 | 0.00 | 0.00 | 0.00 | 70 | 1019.4 |
| 20260503211350 | 59 | 261 | 0.0 | 1.7 | 0.00 | 0.00 | 0.00 | 70 | 1019.2 |
| 20260503210847 | 59 | 261 | 0.9 | 6.1 | 0.00 | 0.00 | 0.00 | 70 | 1019.1 |
| 20260503210339 | 59 | 254 | 1.7 | 6.1 | 0.00 | 0.00 | 0.00 | 70 | 1019.1 |
| 20260503205838 | 59 | 215 | 0.9 | 3.5 | 0.00 | 0.00 | 0.00 | 70 | 1019.1 |
| 20260503205339 | 59 | 223 | 0.9 | 2.6 | 0.00 | 0.00 | 0.00 | 70 | 1019.0 |
| 20260503204837 | 60 | 222 | 0.9 | 2.6 | 0.00 | 0.00 | 0.00 | 70 | 1019.0 |
| 20260503204342 | 60 | 214 | 0.9 | 2.6 | 0.00 | 0.00 | 0.00 | 69 | 1019.0 |
| 20260503203833 | 60 | 227 | 1.7 | 3.5 | 0.00 | 0.00 | 0.00 | 68 | 1018.9 |
| 20260503203401 | 60 | 266 | 1.7 | 3.5 | 0.00 | 0.00 | 0.00 | 68 | 1018.9 |
| 20260503202333 | 61 | 286 | 0.9 | 2.6 | 0.00 | 0.00 | 0.00 | 66 | 1018.9 |
| 20260503201908 | 61 | 244 | 0.9 | 2.6 | 0.00 | 0.00 | 0.00 | 66 | 1018.9 |
| 20260503200815 | 61 | 214 | 0.9 | 2.6 | 0.00 | 0.00 | 0.00 | 66 | 1018.7 |
| 20260503200316 | 61 | 211 | 1.7 | 3.5 | 0.00 | 0.00 | 0.00 | 67 | 1018.7 |
| 20260503195807 | 61 | 213 | 0.9 | 3.5 | 0.00 | 0.00 | 0.00 | 67 | 1018.6 |
| 20260503195304 | 61 | 219 | 0.0 | 1.7 | 0.00 | 0.00 | 0.00 | 67 | 1018.5 |
| 20260503194801 | 61 | 215 | 0.0 | 1.7 | 0.00 | 0.00 | 0.00 | 67 | 1018.5 |
| 20260503194349 | 62 | 246 | 0.9 | 3.5 | 0.00 | 0.00 | 0.00 | 67 | 1018.4 |
| 20260503193247 | 62 | 290 | 1.7 | 6.1 | 0.00 | 0.00 | 0.00 | 66 | 1018.3 |
| 20260503192750 | 62 | 296 | 1.7 | 6.1 | 0.00 | 0.00 | 0.00 | 65 | 1018.3 |
| 20260503192238 | 62 | 214 | 1.7 | 6.1 | 0.00 | 0.00 | 0.00 | 65 | 1018.2 |
| 20260503191841 | 63 | 195 | 1.7 | 5.2 | 0.00 | 0.00 | 0.00 | 65 | 1018.2 |
| 20260503190740 | 63 | 209 | 1.7 | 5.2 | 0.00 | 0.00 | 0.00 | 64 | 1018.1 |
| 20260503190239 | 63 | 194 | 1.7 | 6.1 | 0.00 | 0.00 | 0.00 | 63 | 1018.0 |
| 20260503185730 | 64 | 223 | 1.7 | 6.1 | 0.00 | 0.00 | 0.00 | 62 | 1017.9 |
| 20260503185223 | 64 | 292 | 1.7 | 6.1 | 0.00 | 0.00 | 0.00 | 62 | 1017.8 |
| 20260503184810 | 64 | 284 | 2.6 | 7.0 | 0.00 | 0.00 | 0.00 | 62 | 1017.8 |
| 20260503183655 | 64 | 238 | 2.6 | 6.1 | 0.00 | 0.00 | 0.00 | 61 | 1017.7 |
| 20260503183147 | 65 | 252 | 2.6 | 7.8 | 0.00 | 0.00 | 0.00 | 61 | 1017.7 |
| 20260503182649 | 65 | 198 | 3.5 | 8.7 | 0.00 | 0.00 | 0.00 | 60 | 1017.6 |
| 20260503182144 | 65 | 202 | 2.6 | 8.7 | 0.00 | 0.00 | 0.00 | 60 | 1017.6 |
| 20260503181726 | 65 | 227 | 1.7 | 5.2 | 0.00 | 0.00 | 0.00 | 59 | 1017.5 |
| 20260503180634 | 66 | 295 | 0.9 | 4.3 | 0.00 | 0.00 | 0.00 | 58 | 1017.3 |
| 20260503180134 | 66 | 257 | 1.7 | 4.3 | 0.00 | 0.00 | 0.00 | 58 | 1017.3 |
| 20260503175634 | 66 | 271 | 1.7 | 4.3 | 0.00 | 0.00 | 0.00 | 57 | 1017.2 |
| 20260503175133 | 67 | 302 | 1.7 | 5.2 | 0.00 | 0.00 | 0.00 | 57 | 1017.2 |
| 20260503174630 | 67 | 300 | 1.7 | 5.2 | 0.00 | 0.00 | 0.00 | 56 | 1017.1 |
| 20260503174122 | 68 | 292 | 2.6 | 7.0 | 0.00 | 0.00 | 0.04 | 55 | 1017.1 |
| 20260503173615 | 68 | 289 | 3.5 | 7.0 | 0.00 | 0.00 | 0.04 | 55 | 1017.1 |
| 20260503173105 | 69 | 275 | 2.6 | 7.0 | 0.00 | 0.00 | 0.04 | 54 | 1017.1 |
| 20260503172602 | 69 | 294 | 2.6 | 5.2 | 0.00 | 0.00 | 0.04 | 54 | 1017.1 |
| 20260503172047 | 70 | 309 | 2.6 | 6.1 | 0.00 | 0.00 | 0.04 | 53 | 1017.0 |
| 20260503171542 | 71 | 306 | 2.6 | 6.1 | 0.00 | 0.00 | 0.04 | 52 | 1016.9 |
| 20260503171044 | 72 | 295 | 1.7 | 5.2 | 0.00 | 0.00 | 0.04 | 50 | 1016.9 |
| 20260503170540 | 73 | 287 | 1.7 | 4.3 | 0.00 | 0.00 | 0.04 | 49 | 1016.9 |
| 20260503150922 | 75 | 300 | 4.3 | 11.3 | 0.00 | 0.00 | 0.04 | 45 | 1017.7 |
| 20260503150453 | 75 | 283 | 5.2 | 11.3 | 0.00 | 0.00 | 0.04 | 44 | 1017.7 |
| 20260503140141 | 76 | 221 | 4.3 | 12.2 | 0.00 | 0.00 | 0.00 | 42 | 1018.2 |
| 20260503131104 | 76 | 225 | 4.3 | 9.6 | 0.00 | 0.00 | 0.00 | 40 | 1018.3 |
| 20260503130603 | 76 | 286 | 3.5 | 9.6 | 0.00 | 0.00 | 0.00 | 43 | 1018.4 |
| 20260503130128 | 76 | 221 | 3.5 | 7.8 | 0.00 | 0.00 | 0.00 | 41 | 1018.3 |
| 20260503110338 | 74 | 226 | 4.3 | 10.4 | 0.00 | 0.00 | 0.00 | 45 | 1019.1 |
| 20260503100234 | 72 | 317 | 2.6 | 7.0 | 0.00 | 0.00 | 0.00 | 43 | 1019.8 |
| 20260503081544 | 65 | 306 | 1.7 | 3.5 | 0.00 | 0.00 | 0.00 | 58 | 1020.7 |
| 20260503081042 | 65 | 302 | 1.7 | 4.3 | 0.00 | 0.00 | 0.00 | 57 | 1020.7 |
| 20260503080541 | 65 | 308 | 1.7 | 4.3 | 0.00 | 0.00 | 0.00 | 58 | 1020.8 |
| 20260503072458 | 61 | 205 | 0.0 | 0.0 | 0.00 | 0.00 | 0.00 | 60 | 1020.9 |
| 20260503071946 | 60 | 205 | 0.0 | 1.7 | 0.00 | 0.00 | 0.00 | 63 | 1021.0 |
| 20260503071438 | 60 | 205 | 0.9 | 2.6 | 0.00 | 0.00 | 0.00 | 62 | 1021.0 |
| 20260503070931 | 59 | 204 | 0.0 | 2.6 | 0.00 | 0.00 | 0.00 | 63 | 1021.2 |
| 20260503070430 | 59 | 184 | 0.0 | 1.7 | 0.00 | 0.00 | 0.00 | 65 | 1021.2 |
| 20260503054357 | 51 | 173 | 0.9 | 1.7 | 0.00 | 0.00 | 0.00 | 76 | 1021.0 |
| 20260503053859 | 51 | 169 | 0.9 | 1.7 | 0.00 | 0.00 | 0.00 | 77 | 1021.0 |
| 20260503053358 | 50 | 169 | 0.9 | 1.7 | 0.00 | 0.00 | 0.00 | 76 | 1020.9 |
| 20260503052915 | 50 | 169 | 0.9 | 1.7 | 0.00 | 0.00 | 0.00 | 77 | 1020.9 |
| 20260503051931 | 49 | 169 | 0.9 | 1.7 | 0.00 | 0.00 | 0.00 | 78 | 1020.9 |
| 20260503050849 | 49 | 169 | 0.9 | 1.7 | 0.00 | 0.00 | 0.00 | 79 | 1020.9 |
| 20260503050346 | 48 | 169 | 0.9 | 1.7 | 0.00 | 0.00 | 0.00 | 80 | 1020.9 |
| 20260503045845 | 47 | 170 | 0.0 | 0.9 | 0.00 | 0.00 | 0.00 | 80 | 1020.8 |
| 20260503045337 | 47 | 170 | 0.0 | 0.9 | 0.00 | 0.00 | 0.00 | 81 | 1020.9 |
| 20260503044836 | 47 | 170 | 0.0 | 0.9 | 0.00 | 0.00 | 0.00 | 82 | 1020.8 |
| 20260503044335 | 46 | 170 | 0.9 | 1.7 | 0.00 | 0.00 | 0.00 | 82 | 1020.9 |
| 20260503043833 | 46 | 170 | 1.7 | 2.6 | 0.00 | 0.00 | 0.00 | 82 | 1020.9 |
| 20260503043334 | 46 | 170 | 1.7 | 2.6 | 0.00 | 0.00 | 0.00 | 82 | 1020.9 |
| 20260503042832 | 46 | 173 | 0.9 | 1.7 | 0.00 | 0.00 | 0.00 | 82 | 1020.9 |
| 20260503042332 | 46 | 173 | 0.0 | 1.7 | 0.00 | 0.00 | 0.00 | 81 | 1020.9 |
| 20260503041831 | 46 | 173 | 0.0 | 0.9 | 0.00 | 0.00 | 0.00 | 81 | 1020.9 |
| 20260503041332 | 46 | 173 | 0.0 | 0.9 | 0.00 | 0.00 | 0.00 | 81 | 1020.9 |
| 20260503040827 | 46 | 173 | 0.0 | 0.9 | 0.00 | 0.00 | 0.00 | 81 | 1020.9 |
| 20260503040347 | 47 | 173 | 0.0 | 0.9 | 0.00 | 0.00 | 0.00 | 80 | 1020.8 |
| 20260503035310 | 47 | 173 | 0.0 | 0.9 | 0.00 | 0.00 | 0.00 | 80 | 1020.6 |
| 20260503034757 | 47 | 173 | 0.0 | 1.7 | 0.00 | 0.00 | 0.00 | 79 | 1020.7 |
| 20260503034251 | 47 | 173 | 0.0 | 1.7 | 0.00 | 0.00 | 0.00 | 79 | 1020.6 |
| 20260503033737 | 47 | 173 | 0.0 | 0.0 | 0.00 | 0.00 | 0.00 | 79 | 1020.5 |
| 20260503033238 | 47 | 173 | 0.0 | 0.9 | 0.00 | 0.00 | 0.00 | 79 | 1020.5 |
| 20260503032738 | 47 | 173 | 0.0 | 0.9 | 0.00 | 0.00 | 0.00 | 78 | 1020.5 |
| 20260503032235 | 47 | 173 | 0.0 | 0.9 | 0.00 | 0.00 | 0.00 | 77 | 1020.4 |
| 20260503031737 | 48 | 173 | 0.0 | 0.9 | 0.00 | 0.00 | 0.00 | 77 | 1020.4 |
| 20260503031236 | 48 | 173 | 0.9 | 0.9 | 0.00 | 0.00 | 0.00 | 77 | 1020.4 |
| 20260503030737 | 48 | 173 | 0.9 | 0.9 | 0.00 | 0.00 | 0.00 | 77 | 1020.3 |
| 20260503030254 | 48 | 173 | 0.9 | 0.9 | 0.00 | 0.00 | 0.00 | 77 | 1020.3 |
| 20260503025213 | 48 | 173 | 0.0 | 0.9 | 0.00 | 0.00 | 0.00 | 76 | 1020.4 |
| 20260503024712 | 49 | 173 | 0.0 | 0.9 | 0.00 | 0.00 | 0.00 | 75 | 1020.4 |
| 20260503024214 | 49 | 173 | 0.0 | 0.9 | 0.00 | 0.00 | 0.00 | 74 | 1020.4 |
| 20260503023705 | 49 | 173 | 0.0 | 0.9 | 0.00 | 0.00 | 0.00 | 74 | 1020.4 |
| 20260503023218 | 49 | 173 | 0.0 | 0.9 | 0.00 | 0.00 | 0.00 | 74 | 1020.5 |
| 20260503022145 | 49 | 173 | 0.0 | 0.9 | 0.00 | 0.00 | 0.00 | 73 | 1020.5 |
| 20260503021644 | 50 | 173 | 0.9 | 0.9 | 0.00 | 0.00 | 0.00 | 73 | 1020.5 |
| 20260503021142 | 50 | 173 | 0.9 | 0.9 | 0.00 | 0.00 | 0.00 | 72 | 1020.6 |
| 20260503020644 | 50 | 173 | 0.9 | 0.9 | 0.00 | 0.00 | 0.00 | 72 | 1020.6 |
| 20260503020147 | 50 | 173 | 0.9 | 1.7 | 0.00 | 0.00 | 0.00 | 72 | 1020.7 |
| 20260503015640 | 50 | 173 | 0.9 | 1.7 | 0.00 | 0.00 | 0.00 | 72 | 1020.6 |
| 20260503015141 | 50 | 173 | 0.0 | 0.9 | 0.00 | 0.00 | 0.00 | 72 | 1020.6 |
| 20260503014638 | 50 | 173 | 0.0 | 0.9 | 0.00 | 0.00 | 0.00 | 72 | 1020.6 |
| 20260503014138 | 50 | 173 | 0.0 | 0.9 | 0.00 | 0.00 | 0.00 | 72 | 1020.7 |
| 20260503013638 | 50 | 173 | 0.0 | 0.9 | 0.00 | 0.00 | 0.00 | 71 | 1020.7 |
| 20260503013137 | 51 | 173 | 0.0 | 0.9 | 0.00 | 0.00 | 0.00 | 71 | 1020.8 |
| 20260503012638 | 51 | 173 | 0.0 | 0.9 | 0.00 | 0.00 | 0.00 | 71 | 1020.8 |
| 20260503012137 | 51 | 173 | 0.0 | 0.0 | 0.00 | 0.00 | 0.00 | 70 | 1020.8 |
| 20260503011636 | 51 | 173 | 0.0 | 0.0 | 0.00 | 0.00 | 0.00 | 70 | 1020.8 |
| 20260503011135 | 51 | 173 | 0.0 | 0.9 | 0.00 | 0.00 | 0.00 | 70 | 1020.7 |
| 20260503010636 | 51 | 173 | 0.0 | 0.9 | 0.00 | 0.00 | 0.00 | 70 | 1020.8 |
| 20260503010134 | 51 | 173 | 0.0 | 0.9 | 0.00 | 0.00 | 0.00 | 70 | 1020.9 |
| 20260503005632 | 51 | 173 | 0.0 | 0.9 | 0.00 | 0.00 | 0.00 | 70 | 1020.8 |
| 20260503005132 | 51 | 173 | 0.0 | 0.9 | 0.00 | 0.00 | 0.00 | 69 | 1020.9 |
| 20260503004633 | 51 | 173 | 0.9 | 1.7 | 0.00 | 0.00 | 0.00 | 69 | 1020.9 |
| 20260503004136 | 51 | 173 | 0.0 | 1.7 | 0.00 | 0.00 | 0.00 | 68 | 1021.0 |
| 20260503003630 | 51 | 173 | 0.0 | 0.9 | 0.00 | 0.00 | 0.00 | 68 | 1021.0 |